Location: Sternwarte ZA, Rosenfeld-Brittheim
(48.2889°N, 8.6789°E)
Time: 06:02:56
(UTC+01:00)

ISS - Pass Details

Date: 24 February 2020
Orbit: 415 x 423 km, 51.6° (Epoch: 27 February)

Event Time Altitude Azimuth Distance (km) Brightness Sun altitude
Exits shadow 05:09:44 11° 163° (SSE) 1,413 -1.0 -21.9°
Maximum altitude 05:11:11 14° 136° (SE) 1,274 -0.9 -21.7°
Drops below altitude 10° 05:13:02 10° 102° (ESE) 1,503 0.0 -21.4°
Sets 05:15:52 0° 76° (ENE) 2,373 1.6 -20.9°
